Skip Page Navigation
NASA JPL Caltech
NASA Logo - Jet Propulsion Laboratory + View the NASA Portal
+ Near-Earth Object (NEO) Program
Search JPL
JPL Home Earth Solar System Stars & Galaxies Technology
JPL Solar System Dynamics
BODIES ORBITS EPHEMERIDES TOOLS PHYSICAL DATA DISCOVERY FAQ SITE MAP
JPL Small-Body Database Browser
Search: [ help ]  
69593 (1998 EN21)
Classification: Main-belt Asteroid          SPK-ID: 2069593
Ephemeris | Orbit Diagram | Orbital Elements | Physical Parameters | Discovery Circumstances ]

[ show orbit diagram ]
Orbital Elements at Epoch 2457000.5 (2014-Dec-09.0) TDB
Reference: JPL 12 (heliocentric ecliptic J2000)
 Element Value Uncertainty (1-sigma)   Units 
e .06174534724257866 6.6213e-08  
a 2.275489259876778 1.673e-08 AU
q 2.134988385378928 1.5393e-07 AU
i 7.58426853347529 7.2577e-06 deg
node 114.5687340687138 4.5552e-05 deg
peri 6.773726637196633 6.8924e-05 deg
M 324.2178075968562 5.1745e-05 deg
tp 2457125.116358914986
(2015-Apr-12.61635891)
0.00018042 JED
period 1253.7490353848
3.43
1.3827e-05
3.786e-08
d
yr
n .287138805167263 3.1666e-09 deg/d
Q 2.415990134374628 1.7763e-08 AU
  Orbit Determination Parameters
   # obs. used (total)      630  
   data-arc span      6290 days (17.22 yr)  
   first obs. used      1998-01-02  
   last obs. used      2015-03-24  
   planetary ephem.      DE431  
   SB-pert. ephem.      SB431-BIG16  
   condition code      0  
   fit RMS      .49121  
   data source      ORB  
   producer      Otto Matic  
   solution date      2015-Jun-04 18:27:37  

Additional Information
 Earth MOID = 1.15121 AU 
 T_jup = 3.595 
[ show covariance matrix ]

Ephemeris | Orbit Diagram | Orbital Elements | Physical Parameters | Discovery Circumstances ]

Physical Parameter Table
Parameter Symbol Value Units Sigma Reference Notes
absolute magnitude H 15.4 mag n/a MPO337788  

69593 (1998 EN21)          Discovered 1998-Mar-11 by BAO Schmidt CCD Asteroid Program at Xinglong
Reference: 20031109/Numbers.arcLast Updated: 2004-04-19

Alternate Designations
 1998 EN21 = 2000 UV106 
Ephemeris | Orbit Diagram | Orbital Elements | Physical Parameters | Discovery Circumstances ]
ABOUT SSD CREDITS/AWARDS PRIVACY/COPYRIGHT GLOSSARY LINKS
FirstGov 2015-Sep-04 10:25 UT
(server date/time)  
NASA Home Page
Site Manager:   Ryan S. Park
Webmaster  Alan B. Chamberlin